Waarnemingen

Advertentie
Mijn weer
Estepona, Spanje (8463): temperatuur & dauwpunt: 21.02.2020 02:00:00 - 27.02.2020 02:00:00 (CET)Estepona, Spanje (8463): windsnelheid & windstoten: 21.02.2020 02:00:00 - 27.02.2020 02:00:00 (CET)Estepona, Spanje (8463): windrichting: 21.02.2020 02:00:00 - 27.02.2020 02:00:00 (CET)Estepona, Spanje (8463): luchtdruk: 21.02.2020 02:00:00 - 27.02.2020 02:00:00 (CET)Estepona, Spanje (8463): zicht: 21.02.2020 02:00:00 - 27.02.2020 02:00:00 (CET)Estepona, Spanje (8463): Zonneschijnduur: 21.02.2020 02:00:00 - 27.02.2020 02:00:00 (CET)Estepona, Spanje (8463): neerslag: 21.02.2020 02:00:00 - 27.02.2020 02:00:00 (CET)
Datum & Tijd tt [°C] td [°C] ff [km/u] ff [kn] fx [km/u] fx [kn] dd ppp [hPa] vv [km] sd [min] rr [mm]
27.02.2020 02:00:00 13,5 3,0 1 1 9 5 WNW 1022,9 20 0 0,0
27.02.2020 01:00:00 13,7 3,4 2 1 8 5 NNO 1023,1 20 0 -
27.02.2020 00:00:00 14,6 3,4 2 1 11 6 ZZW 1023,4 20 0 0,0
26.02.2020 23:00:00 15,6 3,9 7 4 22 12 WZW 1023,4 20 0 0,0
26.02.2020 22:00:00 15,7 4,5 12 6 33 18 W 1022,9 20 0 0,0
26.02.2020 21:00:00 15,9 5,1 13 7 34 18 W 1022,8 20 0 0,0
26.02.2020 20:00:00 16,4 5,0 17 9 38 21 W 1022,5 20 0 0,0
26.02.2020 19:00:00 17,6 4,8 17 9 40 22 W 1021,8 20 40 -
26.02.2020 18:00:00 20,2 3,8 18 10 44 24 W 1021,4 20 60 0,0
26.02.2020 17:00:00 21,4 4,8 20 11 49 26 W 1021,0 20 60 0,0
26.02.2020 16:00:00 22,0 5,0 22 12 50 27 W 1020,8 20 56 0,0
26.02.2020 15:00:00 21,9 5,8 22 12 50 27 W 1021,3 20 52 0,0
26.02.2020 14:00:00 21,0 7,3 26 14 52 28 WZW 1022,1 18 60 0,0
26.02.2020 13:00:00 - - - - - - - - - - -
26.02.2020 12:00:00 19,6 7,7 21 11 41 22 W 1023,3 20 60 0,0
26.02.2020 11:00:00 18,1 8,4 20 11 41 22 WZW 1023,8 20 60 0,0
26.02.2020 10:00:00 15,6 8,8 14 8 26 14 WZW 1023,6 20 13 0,0
26.02.2020 09:00:00 12,7 7,4 1 1 8 4 O 1023,2 20 0 0,0
26.02.2020 08:00:00 11,0 6,4 2 1 7 4 N 1022,4 20 0 0,0
26.02.2020 07:00:00 11,8 6,7 3 2 16 9 N 1022,3 20 0 -
26.02.2020 06:00:00 12,5 7,4 9 5 24 13 W 1022,3 20 0 0,0
26.02.2020 05:00:00 13,0 7,8 11 6 23 12 WZW 1022,6 20 0 0,0
26.02.2020 04:00:00 13,4 7,6 13 7 27 15 W 1022,9 20 0 0,0
26.02.2020 03:00:00 13,7 7,8 18 10 37 20 W 1023,5 20 0 0,0
26.02.2020 02:00:00 13,9 7,4 18 10 33 18 W 1023,6 20 0 0,0
26.02.2020 01:00:00 13,8 7,3 14 7 27 15 W 1023,8 20 0 -
26.02.2020 00:00:00 14,1 7,1 16 9 35 19 WZW 1024,4 20 0 0,0
25.02.2020 23:00:00 14,5 6,5 20 11 37 20 WZW 1024,3 20 0 0,0
25.02.2020 22:00:00 14,7 7,0 22 12 40 22 WZW 1023,9 20 0 0,0
25.02.2020 21:00:00 15,3 8,5 25 13 44 24 ZZW 1023,9 20 0 0,0
25.02.2020 20:00:00 16,2 8,7 18 10 37 20 ZZW 1024,0 20 0 0,0
25.02.2020 19:00:00 17,5 9,2 18 10 41 22 WZW 1023,5 20 25 -
25.02.2020 18:00:00 19,2 8,3 21 11 46 25 WZW 1023,4 20 40 0,0
25.02.2020 17:00:00 20,5 6,4 26 14 49 27 WZW 1023,3 20 58 0,0
25.02.2020 16:00:00 22,0 7,4 25 13 43 23 WZW 1023,0 20 52 0,0
25.02.2020 15:00:00 22,2 5,9 23 12 50 27 WZW 1023,6 20 51 0,0
25.02.2020 14:00:00 21,6 6,7 28 15 55 30 W 1024,8 20 60 0,0
25.02.2020 13:00:00 21,2 7,4 22 12 48 26 WZW 1025,1 20 60 -
25.02.2020 12:00:00 19,5 9,9 29 16 52 28 WZW 1025,6 15 60 0,0
25.02.2020 11:00:00 18,5 9,8 23 12 49 26 W 1025,7 18 60 0,0
25.02.2020 10:00:00 17,2 9,3 26 14 54 29 W 1025,6 14 14 0,0
25.02.2020 09:00:00 15,8 8,8 23 12 42 23 W 1024,7 20 13 0,0
25.02.2020 08:00:00 14,4 7,3 16 9 - - W 1023,9 20 - -
25.02.2020 07:00:00 13,9 6,5 18 10 40 22 W 1023,5 20 0 -
25.02.2020 06:00:00 11,0 6,4 3 2 9 5 WNW 1023,1 20 0 0,0
25.02.2020 05:00:00 11,4 7,1 2 1 7 4 N 1023,2 18 0 0,0
25.02.2020 04:00:00 11,4 6,7 2 1 11 6 WZW 1023,4 20 0 0,0
25.02.2020 03:00:00 11,6 7,8 2 1 8 4 NNW 1024,1 20 0 0,0
25.02.2020 02:00:00 11,9 8,4 3 1 9 5 N 1024,4 13 0 0,0
25.02.2020 01:00:00 12,2 8,3 3 1 8 5 NW 1025,3 14 0 -
25.02.2020 00:00:00 11,9 7,8 2 1 8 4 NW 1025,5 20 0 0,0
24.02.2020 23:00:00 12,5 8,4 3 1 8 5 N 1025,7 19 0 0,0
24.02.2020 22:00:00 12,9 8,8 3 1 6 3 NNW 1025,5 12 0 0,0
24.02.2020 21:00:00 - - - - - - - - - - -
24.02.2020 20:00:00 14,8 9,8 5 3 10 5 W 1026,0 17 0 0,0
24.02.2020 19:00:00 16,3 9,4 6 4 10 5 WZW 1025,8 20 0 -
24.02.2020 18:00:00 18,5 10,0 6 3 12 6 ZW 1025,8 20 0 0,0
24.02.2020 17:00:00 18,7 10,0 5 3 12 7 ZW 1026,3 20 0 0,0
24.02.2020 16:00:00 19,9 10,0 6 4 11 6 ZW 1026,9 20 0 0,0
24.02.2020 15:00:00 20,0 9,8 6 3 13 7 ZZW 1027,9 20 0 0,0
24.02.2020 14:00:00 19,8 9,9 5 3 11 6 ZZW 1028,9 20 0 0,0
24.02.2020 13:00:00 18,1 9,7 6 3 11 6 ZZO 1030,2 20 0 -
24.02.2020 12:00:00 17,7 9,3 5 3 9 5 ZO 1031,2 20 0 0,0
24.02.2020 11:00:00 17,8 9,4 5 3 13 7 O 1031,6 20 0 0,0
24.02.2020 10:00:00 16,0 9,2 7 4 13 7 ONO 1031,6 20 0 0,0
24.02.2020 09:00:00 12,7 7,6 3 2 8 5 N 1031,3 20 0 0,0
24.02.2020 08:00:00 - - - - - - - - - - -
24.02.2020 07:00:00 11,9 5,9 4 2 14 8 NNO 1030,9 20 0 -
24.02.2020 06:00:00 12,0 6,8 6 4 16 9 NNO 1031,0 20 0 0,0
24.02.2020 05:00:00 12,3 7,8 8 4 15 8 NO 1031,1 20 0 0,0
24.02.2020 04:00:00 12,5 7,8 7 4 18 10 NO 1031,5 20 0 0,0
24.02.2020 03:00:00 12,7 7,8 9 5 16 9 NO 1031,8 20 0 0,0
24.02.2020 02:00:00 12,6 7,8 6 3 18 10 NO 1032,0 17 0 0,0
24.02.2020 01:00:00 13,1 8,1 9 5 18 10 NO 1032,3 20 0 -
24.02.2020 00:00:00 13,0 8,1 8 5 18 10 NNO 1032,7 16 0 0,0
23.02.2020 23:00:00 13,2 8,9 8 4 17 9 NO 1032,9 20 0 0,0
23.02.2020 22:00:00 13,4 9,0 9 5 17 9 NO 1032,8 18 0 0,0
23.02.2020 21:00:00 13,4 9,0 7 4 15 8 NO 1032,5 17 0 0,0
23.02.2020 20:00:00 13,9 9,3 6 4 20 11 ONO 1032,3 15 0 0,0
23.02.2020 19:00:00 15,1 9,7 13 7 25 13 ONO 1032,2 6 0 -
23.02.2020 18:00:00 16,0 9,7 17 9 27 15 O 1032,1 8 0 0,0
23.02.2020 17:00:00 16,2 9,6 16 9 32 18 O 1032,7 13 0 0,0
23.02.2020 16:00:00 16,7 9,4 20 11 39 21 O 1033,0 14 0 0,0
23.02.2020 15:00:00 17,0 9,7 22 12 44 24 O 1033,2 19 0 0,0
23.02.2020 14:00:00 17,0 9,4 29 15 47 25 O 1034,2 13 0 0,0
23.02.2020 13:00:00 17,0 9,4 29 16 44 24 ONO 1034,7 4,9 0 -
23.02.2020 12:00:00 16,1 9,3 23 13 39 21 O 1035,0 14 0 0,0
23.02.2020 11:00:00 16,0 9,4 22 12 40 21 ONO 1035,0 12 0 0,0
23.02.2020 10:00:00 15,2 8,7 13 7 27 15 NO 1034,5 20 0 0,0
23.02.2020 09:00:00 13,9 7,8 12 6 27 15 NO 1034,0 20 0 0,0
23.02.2020 08:00:00 13,4 7,8 11 6 26 14 NO 1033,7 20 0 0,0
23.02.2020 07:00:00 13,0 7,3 11 6 26 14 NO 1033,3 20 0 -
23.02.2020 06:00:00 12,9 7,0 10 5 - - NO 1032,8 20 0 0,0
23.02.2020 05:00:00 13,1 7,1 10 6 26 14 NO 1032,6 20 0 0,0
23.02.2020 04:00:00 13,1 7,6 12 6 24 13 NO 1032,9 20 0 0,0
23.02.2020 03:00:00 13,1 8,1 10 6 26 14 NO 1033,2 20 0 0,0
23.02.2020 02:00:00 13,2 8,7 10 6 23 13 NO 1033,5 20 0 0,0
23.02.2020 01:00:00 13,1 8,9 10 6 23 12 NO 1033,4 19 0 -
23.02.2020 00:00:00 13,2 9,0 10 5 25 14 NO 1033,4 20 0 0,0
22.02.2020 23:00:00 13,4 9,3 12 6 26 14 NO 1033,4 20 0 0,0
22.02.2020 22:00:00 13,8 9,4 11 6 26 14 NO 1033,2 20 0 0,0
22.02.2020 21:00:00 - - - - - - - - - - -
22.02.2020 20:00:00 14,1 9,6 9 5 32 17 NO 1032,2 15 0 0,0
22.02.2020 19:00:00 15,0 10,0 20 11 35 19 O 1031,5 12 0 -
22.02.2020 18:00:00 15,8 9,9 22 12 32 18 O 1031,2 16 0 0,0
22.02.2020 17:00:00 16,3 9,9 21 11 32 17 O 1031,4 13 0 0,0
22.02.2020 16:00:00 16,9 9,8 22 12 34 18 O 1031,8 20 0 0,0
22.02.2020 15:00:00 17,2 9,3 23 13 36 19 O 1032,2 14 0 0,0
22.02.2020 14:00:00 17,4 9,6 23 12 39 21 O 1032,9 16 0 0,0
22.02.2020 13:00:00 17,0 9,4 24 13 42 23 O 1033,6 17 0 -
22.02.2020 12:00:00 17,0 9,2 23 12 43 23 O 1033,9 14 0 0,0
22.02.2020 11:00:00 17,2 8,7 23 12 34 19 ONO 1033,8 17 0 0,0
22.02.2020 10:00:00 15,5 8,5 11 6 23 12 ONO 1033,5 14 0 0,0
22.02.2020 09:00:00 14,6 7,6 10 5 26 14 NO 1032,9 20 0 0,0
22.02.2020 08:00:00 14,3 7,1 9 5 21 11 NO 1032,3 20 0 0,0
22.02.2020 07:00:00 14,2 7,0 9 5 24 13 NO 1031,8 20 0 -
22.02.2020 06:00:00 - - - - - - - - - - -
22.02.2020 05:00:00 14,1 6,7 10 5 22 12 NO 1031,2 20 0 0,0
22.02.2020 04:00:00 14,1 6,7 9 5 22 12 NO 1031,2 20 0 0,0
22.02.2020 03:00:00 14,4 7,0 11 6 25 14 NO 1031,3 20 0 0,0
22.02.2020 02:00:00 14,2 7,0 10 5 23 12 NO 1031,4 20 0 0,0
22.02.2020 01:00:00 14,0 7,3 9 5 24 13 NO 1031,6 20 0 -
22.02.2020 00:00:00 13,4 7,8 12 6 25 14 NO 1031,8 20 0 0,0
21.02.2020 23:00:00 13,5 8,1 11 6 29 16 NO 1031,8 20 0 0,0
21.02.2020 22:00:00 13,7 8,4 10 6 26 14 NO 1031,4 19 0 0,0
21.02.2020 21:00:00 14,0 8,7 11 6 34 18 NO 1030,9 20 0 0,0
21.02.2020 20:00:00 14,7 9,3 23 13 - - O 1030,7 14 - -
21.02.2020 19:00:00 14,9 9,0 24 13 41 22 O 1030,3 17 13 -
21.02.2020 18:00:00 15,5 8,9 22 12 41 22 O 1030,0 15 60 0,0
21.02.2020 17:00:00 15,8 9,4 24 13 40 22 O 1029,7 14 60 0,0
21.02.2020 16:00:00 16,5 9,9 24 13 39 21 O 1029,7 10 28 0,0
21.02.2020 15:00:00 - - - - - - - - - - -
21.02.2020 14:00:00 16,3 9,7 27 15 43 23 O 1030,3 6 0 0,0
21.02.2020 13:00:00 16,5 9,9 25 13 40 22 O 1030,7 12 31 -
21.02.2020 12:00:00 16,9 9,6 23 12 39 21 O 1030,9 12 60 0,0
21.02.2020 11:00:00 16,9 10,5 23 12 35 19 O 1030,5 14 32 0,0
21.02.2020 10:00:00 15,9 9,3 16 8 27 15 ONO 1029,9 15 0 0,0
21.02.2020 09:00:00 14,6 7,6 10 5 23 13 NO 1029,1 20 0 0,0
21.02.2020 08:00:00 13,8 6,7 10 5 21 11 NO 1028,1 20 0 0,0
21.02.2020 07:00:00 - - - - - - - - - - -
21.02.2020 06:00:00 13,5 5,6 9 5 23 12 NO 1026,9 20 0 0,0
21.02.2020 05:00:00 - - - - - - - - - - -
21.02.2020 04:00:00 13,5 7,4 10 5 21 12 NO 1027,4 20 0 0,0
21.02.2020 03:00:00 13,8 7,8 11 6 22 12 NO 1027,7 20 0 0,0
21.02.2020 02:00:00 14,0 7,6 9 5 19 11 NO 1027,9 20 0 0,0

tt = temperatuur
td = dauwpunt
ff = windsnelheid
fx = windstoten
dd = windrichting
ppp = luchtdruk
vv = zicht
sd = Zonneschijnduur
rr = neerslag

Weerstations in de omgeving